EHI
5 3 1 0 0 0 0 0 0 0 0 0 0 0 0 0 0 0 0 0 0 0 0 0 0 1 2 2 1 0 0 0 0 0 0 0 0 1 1 1 0 0 0 1 2 3 5 7 7
4 2 1 0 0 0 0 0 0 0 0 0 0 0 0 0 0 0 0 0 0 0 0 0 0 0 1 1 0 0 0 0 0 0 0 0 0 0 0 0 0 0 0 0 1 2 5 5 5
3 2 0 0 0 0 0 0 0 0 0 0 0 0 0 0 0 0 0 0 0 0 0 0 0 0 0 0 0 0 0 0 0 0 0 0 0 0 0 0 0 1 1 1 1 2 4 4 2
1 1 0 0 0 0 0 0 0 0 0 0 0 0 0 0 0 0 0 0 0 0 0 0 0 0 0 0 0 0 0 0 0 0 0 0 0 1 1 0 0 2 3 3 3 2 3 3 1
0 0 0 0 0 0 0 0 0 0 0 0 0 0 0 0 0 0 1 0 0 0 0 0 0 0 0 0 0 0 0 0 0 0 0 0 1 2 2 1 1 2 4 5 5 3 2 2 1
0 0 0 0 0 0 0 0 0 0 0 0 0 0 0 0 0 0 0 0 0 0 0 0 0 0 0 0 0 0 0 0 0 0 0 0 1 3 3 2 2 2 2 3 4 3 1 1 0
0 0 0 0 0 0 0 0 0 0 0 0 0 0 0 0 0 0 0 0 0 0 0 0 0 0 0 0 0 0 0 0 0 0 0 0 1 2 2 1 1 1 0 1 2 1 0 0 0
0 0 0 0 0 0 0 0 0 0 0 0 0 0 0 0 0 0 0 0 0 0 0 0 0 0 0 0 0 0 0 0 0 0 0 0 1 1 1 0 0 0 0 0 0 0 0 0 0
0 0 0 0 0 0 0 0 0 0 0 0 0 0 0 0 0 0 0 0 0 0 0 0 0 0 0 0 0 0 0 0 0 0 0 0 0 0 0 0 0 0 0 0 0 0 0 0 0
0 0 0 0 0 0 0 0 0 0 0 0 0 0 0 0 0 0 0 0 0 0 0 0 0 0 0 0 0 0 0 0 0 0 0 0 0 0 0 0 0 0 0 0 0 0 0 0 0
0 0 0 0 1 1 0 0 0 0 0 0 1 1 1 0 0 0 0 0 0 0 1 0 0 0 0 0 0 0 0 0 0 0 0 0 0 0 0 0 0 0 0 0 0 0 0 0 0
0 0 0 0 1 1 0 0 0 0 0 0 1 2 1 0 0 0 0 0 0 0 0 0 0 0 0 0 0 0 0 0 0 0 0 0 0 0 0 0 0 0 0 0 0 0 0 0 0
0 0 0 0 0 0 0 0 0 0 0 1 2 2 1 0 0 0 0 0 0 0 0 0 0 0 0 0 0 0 0 0 0 0 0 0 0 0 0 0 0 0 0 0 0 0 0 0 0
0 0 0 0 0 0 0 0 0 0 0 1 1 1 0 0 0 0 0 0 0 0 0 0 0 0 0 0 0 0 0 0 0 0 0 0 0 0 0 0 0 0 0 0 0 0 0 0 0
0 0 0 0 0 0 0 0 0 0 1 1 1 0 0 0 0 0 0 0 0 0 0 0 0 0 0 0 0 0 0 0 0 0 0 0 0 0 0 0 0 0 0 0 0 0 0 0 0
0 0 0 0 0 0 0 0 0 1 2 2 1 0 0 0 0 0 0 0 0 0 0 0 0 0 0 0 0 0 0 0 0 0 0 0 0 0 0 0 0 0 0 0 0 0 0 0 0
0 0 0 0 0 0 0 0 0 1 2 2 1 0 0 0 0 0 0 0 0 0 0 0 0 0 0 0 0 0 0 0 0 0 0 0 0 0 0 0 0 0 0 0 0 0 0 0 0
0 0 0 0 0 0 0 0 0 1 1 1 0 0 0 0 0 0 0 0 0 0 0 0 0 0 0 0 0 0 0 0 0 0 0 0 0 0 0 0 0 0 0 0 0 0 0 0 0
0 0 0 0 0 0 0 0 0 0 0 0 0 0 0 0 0 0 0 0 0 0 0 0 0 0 0 0 0 0 0 0 0 0 0 0 0 0 0 0 0 0 0 0 0 0 0 0 0
0 0 0 0 0 0 0 0 0 0 0 0 1 1 0 1 1 0 0 0 0 0 0 0 0 0 0 0 0 0 0 0 0 0 0 0 0 0 0 0 0 0 0 0 0 0 0 0 0
0 0 0 0 0 0 0 0 0 0 0 0 1 1 1 2 2 1 0 0 0 0 0 0 0 0 0 0 0 0 0 0 0 0 0 0 0 0 0 0 0 0 0 0 0 0 0 0 0
0 0 0 0 0 0 0 0 0 0 0 0 0 0 1 3 3 2 1 0 0 0 0 0 0 0 1 1 0 0 0 0 0 0 0 0 0 0 0 0 0 0 0 0 0 0 0 0 0
0 0 0 0 0 0 0 0 0 0 0 0 0 0 1 3 4 3 2 1 0 0 0 0 1 1 2 2 1 0 0 0 0 0 0 0 0 0 0 0 0 0 0 0 0 0 0 0 0
0 0 0 0 0 0 0 0 0 0 0 0 0 0 2 5 5 4 3 1 1 0 0 1 2 3 3 2 1 0 0 0 0 0 0 0 0 0 0 0 0 0 0 0 0 0 0 0 0
0 0 0 0 0 0 0 0 0 0 0 0 0 1 3 5 6 4 3 3 2 1 0 1 2 2 2 1 0 0 0 0 0 0 0 0 0 0 0 0 0 0 0 0 0 0 0 0 0
0 0 0 0 0 0 0 0 0 0 0 0 0 1 3 5 5 4 3 3 2 1 0 0 1 1 1 0 0 0 0 0 0 0 0 0 0 0 0 0 0 0 0 0 0 0 0 0 0
0 0 0 0 0 0 0 0 0 0 0 0 0 1 3 4 4 3 2 1 1 0 0 0 0 0 0 0 0 0 0 0 0 0 0 0 0 0 0 0 0 0 0 0 0 0 0 0 0
0 0 0 0 0 0 0 0 0 0 0 0 0 1 2 3 3 3 1 0 0 0 0 0 0 0 0 0 0 0 0 0 0 0 0 0 0 0 0 0 0 0 0 0 0 0 0 0 0
0 0 0 0 0 0 0 0 0 0 0 0 0 1 2 3 3 3 1 0 0 0 0 0 0 0 0 0 0 0 0 0 0 0 0 0 0 0 0 0 0 0 0 0 0 0 0 0 0
0 0 0 0 0 0 0 0 0 0 0 0 0 1 2 3 3 3 2 1 0 0 0 0 0 0 0 0 0 0 0 0 0 0 0 0 0 0 0 0 0 0 0 0 0 0 0 0 0
Wind_Speed
3 1 2 3 6 6 3 2 2 2 3 4 7 9 7 6 4 4 2 4 5 3 2 4 7 8 8 8 8 8 9 9 9 9 9 10 10 11 11 11 11 11 11 11 10 10 10 10 11
1 1 3 5 6 4 2 1 3 3 5 5 7 7 7 6 4 5 2 4 5 4 2 4 7 8 8 8 8 9 9 9 9 9 9 9 10 10 10 10 11 11 11 11 10 10 10 10 10
1 1 4 5 4 3 3 2 3 4 4 4 5 5 5 4 3 3 3 6 5 4 3 4 8 8 8 8 9 8 8 8 8 9 9 9 9 10 10 10 11 11 11 11 11 10 10 11 11
2 4 5 6 5 1 5 4 3 5 5 6 6 6 4 2 3 4 5 6 5 4 3 4 8 7 8 8 8 8 8 8 8 8 9 9 9 10 10 10 11 11 11 11 11 11 12 12 11
4 5 6 4 3 2 3 4 4 5 4 5 7 6 3 2 4 5 6 6 6 4 3 4 7 7 7 7 7 7 7 7 7 8 8 9 9 10 10 10 10 10 10 10 11 11 11 11 11
4 5 5 3 3 2 2 4 6 7 6 6 6 5 2 0 4 4 6 5 6 5 4 3 6 7 7 7 7 7 7 7 7 7 7 8 9 9 9 9 9 9 9 10 10 10 10 10 11
5 4 3 4 3 3 3 4 6 6 5 3 5 5 2 1 3 4 5 5 4 4 4 2 2 4 6 6 6 6 6 6 6 6 6 7 7 8 8 8 8 8 8 9 9 10 10 10 10
5 5 3 2 3 2 1 4 4 6 4 3 4 6 4 4 4 4 4 4 4 3 4 3 2 2 2 2 4 5 5 5 5 5 5 6 6 7 7 6 7 8 8 8 8 9 10 10 10
5 6 2 2 4 3 4 6 3 5 5 4 3 4 6 7 5 4 3 2 3 4 3 3 3 2 2 1 3 3 3 3 3 3 5 5 3 3 3 4 6 6 6 7 8 8 8 9 9
5 4 2 2 5 5 4 5 4 4 5 4 5 5 7 6 5 5 4 3 3 3 3 3 3 2 2 2 2 1 1 2 2 2 2 2 2 2 3 3 5 5 6 6 6 7 7 6 4
4 4 3 3 5 6 5 3 4 6 3 4 7 8 7 5 5 5 4 4 4 4 4 3 4 3 2 2 1 1 1 1 2 2 2 2 2 2 2 2 3 3 5 3 4 4 3 3 3
4 3 4 3 4 5 4 4 4 4 4 6 9 9 7 5 5 5 5 4 3 4 4 4 4 3 3 2 2 2 1 1 1 2 2 3 2 2 1 1 2 2 2 2 2 3 3 4 4
4 3 4 4 5 5 5 4 4 2 4 7 8 7 7 6 4 3 4 4 4 4 3 3 4 4 3 3 2 2 2 1 1 1 2 3 3 2 2 1 2 2 2 2 3 3 4 4 4
3 4 3 3 4 3 5 2 3 3 5 7 8 6 6 5 5 4 4 4 4 4 4 3 4 4 4 3 2 2 1 2 2 1 2 3 2 2 2 2 2 2 2 2 3 4 4 3 4
3 3 2 0 3 3 5 1 2 4 7 7 7 6 5 4 5 5 6 5 5 4 4 5 5 4 4 3 3 2 2 2 2 1 2 3 3 3 3 2 2 2 3 4 3 4 4 4 4
2 2 1 3 3 3 6 3 4 4 7 6 6 5 5 4 4 4 5 5 5 5 4 4 5 5 5 4 3 2 2 3 2 2 2 3 4 4 3 3 2 2 3 3 3 3 4 4 3
1 1 3 3 3 4 5 4 4 5 7 6 5 5 5 4 3 3 5 6 6 6 5 4 5 5 4 4 3 3 3 3 2 2 2 3 3 4 4 3 2 3 3 3 3 3 3 3 3
3 3 3 3 2 5 4 4 3 5 7 7 5 5 5 5 5 4 5 5 6 5 5 5 4 4 4 3 3 3 3 2 2 2 2 3 3 4 4 3 3 4 4 3 3 4 3 3 2
4 3 3 4 3 5 6 5 5 5 5 6 5 5 5 6 5 4 5 5 6 5 5 4 4 3 3 2 2 2 1 1 1 1 2 3 3 4 4 3 3 3 3 3 3 3 4 3 2
4 3 3 2 2 4 4 4 4 6 7 8 9 8 7 5 3 4 5 5 6 6 5 4 4 4 3 3 2 2 2 1 0 1 1 2 3 3 4 4 3 3 3 3 3 3 2 1 2
3 5 5 3 0 1 2 3 3 3 4 4 6 7 8 8 8 6 6 5 6 6 6 5 5 4 4 3 2 3 2 2 2 2 1 1 2 3 3 4 3 3 3 3 2 2 3 2 1
3 4 5 4 2 2 3 2 5 4 3 5 6 6 7 7 7 7 7 6 6 6 5 6 5 4 4 4 4 4 3 2 1 1 0 1 2 2 3 3 4 3 2 3 2 2 2 2 1
5 3 3 3 2 1 1 2 5 2 4 6 6 7 7 7 8 8 7 7 6 6 6 5 5 4 3 4 4 4 3 2 1 1 1 1 1 2 2 3 3 3 2 2 2 2 2 2 2
2 2 3 3 3 2 5 4 5 5 8 6 6 6 7 7 7 7 6 5 4 4 4 5 5 4 3 4 4 5 4 3 3 2 1 1 0 1 2 3 2 3 2 2 2 2 2 2 2
4 5 3 3 2 5 3 3 6 6 5 7 8 7 6 7 6 6 6 6 5 5 5 5 5 4 4 4 4 4 5 5 5 3 3 2 1 1 1 2 2 2 2 2 2 2 2 2 2
3 7 6 4 3 4 2 3 5 4 3 4 6 6 6 6 6 7 8 7 7 6 6 6 6 5 4 4 3 4 4 3 3 3 3 3 2 2 2 2 3 3 3 3 2 2 1 2 2
3 3 6 5 2 2 3 2 4 1 2 3 5 5 6 6 7 7 7 7 6 6 6 7 7 5 4 4 4 3 4 4 3 3 3 2 2 2 3 3 2 2 2 3 3 2 1 2 2
4 5 4 4 3 2 3 3 4 5 4 4 5 6 6 6 6 6 6 6 6 6 5 5 6 5 4 4 4 4 4 4 4 3 3 3 3 2 3 3 3 2 2 3 3 2 2 2 1
1 2 3 3 4 4 3 6 5 8 8 7 6 7 7 7 7 6 6 5 5 4 5 4 4 3 3 4 4 4 4 3 4 3 3 3 3 3 3 3 3 3 2 2 3 2 2 2 2
4 4 5 4 3 4 3 6 4 4 5 6 5 5 6 6 6 6 6 5 4 4 4 4 4 4 4 3 3 4 4 4 3 3 3 3 3 3 3 3 3 3 3 3 3 2 2 3 2
Wind_Direction
297 318 88 63 55 54 54 27 80 60 60 55 69 78 80 64 79 119 209 132 130 128 113 97 88 82 79 77 80 82 81 83 83 83 84 82 82 82 80 81 81 82 83 83 83 85 85 85 87
322 50 65 58 76 74 40 50 86 83 131 116 77 75 77 70 79 113 135 141 136 134 127 106 96 89 84 83 84 86 83 83 84 86 87 86 85 84 84 83 82 82 82 81 81 82 86 87 87
287 102 76 65 79 126 140 161 118 89 96 94 76 53 67 93 99 133 166 148 134 127 123 116 104 98 93 89 87 87 86 86 87 89 92 90 89 89 88 86 84 82 81 80 78 76 82 86 87
68 49 56 71 77 124 154 174 133 97 64 61 93 69 60 78 135 149 146 137 131 128 131 131 116 109 104 98 92 90 89 90 92 92 93 91 91 91 90 88 86 84 81 79 78 76 80 81 84
67 72 65 67 77 83 117 128 113 94 82 78 88 89 64 15 105 128 135 138 140 143 144 138 123 117 113 109 103 96 93 94 94 93 94 93 93 95 93 91 87 84 81 80 78 79 81 82 85
58 69 83 91 91 79 63 100 98 91 96 97 95 103 103 128 114 129 132 143 149 148 151 136 126 123 118 115 107 103 99 96 96 96 100 99 97 97 95 94 90 86 84 82 79 77 80 83 86
102 90 111 131 114 85 91 88 96 101 94 105 120 103 124 224 156 141 134 137 143 143 141 133 133 121 118 118 112 104 98 94 96 100 106 106 102 100 100 97 94 90 87 83 79 76 77 79 83
122 99 86 107 117 109 104 85 95 100 94 99 111 129 170 207 173 132 118 119 132 140 146 151 152 128 114 110 117 108 98 93 91 92 97 103 102 103 103 98 97 94 91 86 82 79 78 77 79
84 81 105 157 142 140 126 101 78 83 92 63 78 140 163 162 142 121 108 97 123 141 154 156 153 151 139 133 109 105 94 79 78 76 87 90 74 76 88 100 103 100 95 89 84 80 79 73 71
82 108 167 163 147 143 129 122 127 92 85 72 69 89 126 142 144 144 144 147 147 150 161 154 155 160 150 129 92 60 59 45 50 58 69 80 86 85 87 86 91 94 92 85 83 78 74 67 61
110 138 133 103 122 123 112 107 109 120 113 155 149 149 151 152 155 158 161 162 163 154 150 156 156 149 136 114 109 78 63 51 44 50 76 83 77 73 62 44 49 49 62 52 51 58 58 68 79
107 115 127 124 122 118 123 122 99 123 172 166 158 156 150 154 168 170 162 160 147 136 143 149 147 136 129 119 110 101 85 63 51 55 88 98 94 89 83 55 40 41 45 58 54 64 69 74 77
108 122 114 122 112 116 108 113 120 137 149 140 138 139 148 159 166 167 157 150 135 129 129 129 124 124 117 105 100 100 99 92 82 72 90 103 108 107 88 69 61 49 56 72 75 76 77 78 77
135 122 114 118 119 123 117 121 115 178 147 135 140 150 162 163 162 145 139 136 137 137 135 126 118 119 112 106 106 110 97 89 78 74 95 104 110 110 99 77 70 64 68 79 86 86 84 77 79
107 96 36 239 158 157 118 55 205 186 152 146 156 161 160 165 158 150 150 148 146 143 134 129 122 113 108 104 103 97 88 86 75 78 91 100 104 104 98 88 77 70 79 80 79 77 77 79 76
57 71 334 272 182 172 130 211 246 180 154 160 167 169 165 178 171 161 148 143 143 133 128 130 126 120 115 110 102 89 81 81 75 72 77 86 94 101 99 91 83 79 77 80 83 78 78 71 71
33 174 224 265 202 158 146 210 235 176 160 170 174 174 173 176 179 171 158 148 145 138 132 121 119 123 120 110 97 88 81 75 70 71 72 78 92 100 100 94 88 85 78 73 88 76 89 86 77
211 211 226 229 210 144 161 218 223 186 172 178 177 176 176 183 196 180 160 150 142 137 133 127 120 119 118 103 83 70 60 53 55 67 80 84 94 100 99 95 88 86 82 72 78 82 70 80 82
192 206 237 247 203 156 187 216 219 196 186 184 181 180 185 198 200 170 155 146 137 139 136 132 124 127 123 111 107 98 87 47 44 62 91 99 104 107 104 101 92 88 91 93 94 97 82 64 75
208 211 252 274 195 167 192 234 230 200 199 192 184 183 187 186 175 170 158 151 149 152 150 144 142 141 141 144 144 141 143 135 118 52 74 106 115 117 121 116 113 105 103 92 89 97 97 57 60
214 196 210 213 264 56 113 309 273 246 207 196 189 186 186 180 180 176 168 166 159 159 162 156 156 152 148 141 110 86 64 49 42 45 39 61 116 116 122 127 123 121 119 123 121 119 120 113 40
249 227 190 180 149 247 174 243 270 234 217 212 203 190 187 181 174 174 172 172 172 173 162 153 155 153 154 141 131 133 135 143 191 182 165 73 100 120 130 132 132 133 129 134 145 129 126 125 115
219 217 195 199 175 280 251 184 272 208 220 228 210 195 187 180 175 177 178 178 174 166 159 158 152 152 155 147 146 139 137 159 156 119 107 77 70 115 134 139 138 141 143 149 140 127 125 130 141
161 57 28 46 75 270 240 185 254 222 213 211 205 192 187 181 174 175 172 159 157 157 153 154 151 155 155 146 147 149 152 151 138 135 140 136 77 73 113 140 147 150 150 158 156 147 134 128 123
91 87 28 356 356 259 253 186 245 239 212 191 187 186 182 176 170 167 161 159 160 158 155 153 152 156 158 151 156 160 160 158 164 166 166 162 150 145 160 141 147 150 156 158 148 137 135 135 127
183 146 159 197 228 275 309 223 257 252 190 173 170 165 164 170 173 173 172 170 171 168 165 160 162 166 170 165 173 170 164 161 171 175 172 176 178 182 170 152 150 151 150 144 132 125 146 132 134
164 190 172 150 210 253 271 276 304 8 120 143 154 155 169 175 175 175 174 174 174 174 175 173 171 172 180 180 175 170 164 162 171 173 169 172 180 172 156 151 148 149 142 138 130 131 144 133 139
173 167 110 131 172 243 275 244 230 215 203 179 171 174 178 173 169 169 170 175 178 179 173 167 170 177 181 178 181 177 175 168 166 158 162 171 173 159 149 153 151 149 145 139 126 129 135 125 131
191 157 128 142 170 167 231 258 234 200 186 179 185 182 175 172 174 173 172 173 170 163 161 163 166 167 174 177 176 172 180 172 161 158 166 165 159 158 161 163 157 158 154 146 134 137 138 135 123
182 176 148 160 227 182 189 264 295 182 169 164 165 170 172 171 172 169 166 161 157 158 160 164 165 168 181 177 168 173 172 163 158 164 170 159 153 160 163 154 152 161 158 154 147 151 141 141 139